Вернуться в каталог

STARLINK-35010

АктивенСвязьSSO
NORAD 65281·PAYLOAD·🇺🇸 United States

Запущен Aug 22, 2025 с Vandenberg Space Force Base

Loading…

Ближайшие Пролёты (ближайшие 24 часа)

TLE

СвежийSource: CelesTrak SupGP

Эпоха: Sep 14, 2026, 23:09 UTC

1 65281C 25184J   26257.96506944  .00043619  00000+0  13543-2 0  2574
2 65281  97.2839 306.0546 0000987  90.0537 101.6594 15.33410833    12

Отслеживайте STARLINK-35010 в реальном времени с AllMySat

Download on the App Store